Voltar ao catálogo

NOAA 16 DEB

AtivoSSO
NORAD 41495·DEBRIS·🇺🇸 United States

Lançado Sep 21, 2000 de Vandenberg Space Force Base

Loading…

Próximas Passagens (próximas 24 horas)

TLE

AtualizadoSource: Space-Track

Época: Sep 13, 2026, 11:13 UTC

1 41495U 00055LT  26256.46789972  .00001782  00000-0  89638-3 0  9991
2 41495  98.6770 262.1092 0035964 353.2216   6.8468 14.17362068540248

Acompanhe NOAA 16 DEB em tempo real com AllMySat

Download on the App Store